AFR608 SOCA-SBFZ

Flight info

Callsign AFR608
Flight time 2h 25m
Altitude 35000
Route URUPU1A URUPU DCT ARNAM UM791 ARMIR UZ60 DOTKU
Aircraft A320/M-SDE3FGHIRWY/LB1

Departure

Time 2026-04-26 00:44
Airport Cayenne – Félix Eboué Airport (SOCA)

Arrival

Time 2026-04-26 03:09
Airport Pinto Martins International Airport (SBFZ)
Time Latitude Longitude Altitude Speed Heading
2026-04-25 23:58 4.82179 -52.36306 29 ft 0 kts 335°
2026-04-26 00:31 4.82177 -52.36305 29 ft 2 kts 335°
2026-04-26 00:31 4.82159 -52.36297 29 ft 3 kts 335°
2026-04-26 00:32 4.82140 -52.36288 29 ft 3 kts 336°
2026-04-26 00:32 4.82123 -52.36281 29 ft 3 kts 349°
2026-04-26 00:32 4.82092 -52.36295 29 ft 3 kts 64°
2026-04-26 00:33 4.82085 -52.36311 29 ft 0 kts 65°
2026-04-26 00:38 4.82093 -52.36291 29 ft 4 kts 75°
2026-04-26 00:38 4.82088 -52.36272 29 ft 4 kts 120°
2026-04-26 00:38 4.82061 -52.36255 29 ft 5 kts 155°
2026-04-26 00:39 4.82014 -52.36233 29 ft 8 kts 155°
2026-04-26 00:39 4.81964 -52.36228 29 ft 7 kts 202°
2026-04-26 00:39 4.81925 -52.36281 29 ft 12 kts 244°
2026-04-26 00:39 4.81889 -52.36360 29 ft 14 kts 246°
2026-04-26 00:40 4.81845 -52.36460 28 ft 17 kts 246°
2026-04-26 00:40 4.81789 -52.36579 28 ft 21 kts 244°
2026-04-26 00:40 4.81725 -52.36718 28 ft 23 kts 245°
2026-04-26 00:40 4.81657 -52.36866 28 ft 24 kts 246°
2026-04-26 00:41 4.81586 -52.37020 28 ft 25 kts 245°
2026-04-26 00:41 4.81513 -52.37179 27 ft 25 kts 245°
2026-04-26 00:41 4.81459 -52.37296 27 ft 13 kts 245°
2026-04-26 00:41 4.81441 -52.37358 27 ft 8 kts 272°
2026-04-26 00:42 4.81446 -52.37389 27 ft 1 kts 278°
2026-04-26 00:42 4.81443 -52.37407 27 ft 4 kts 244°
2026-04-26 00:42 4.81424 -52.37413 27 ft 2 kts 180°
2026-04-26 00:42 4.81412 -52.37402 27 ft 2 kts 114°
2026-04-26 00:43 4.81414 -52.37395 27 ft 0 kts 75°
2026-04-26 00:43 4.81437 -52.37344 27 ft 29 kts 64°
2026-04-26 00:43 4.81627 -52.36929 28 ft 98 kts 65°
2026-04-26 00:43 4.81994 -52.36132 29 ft 151 kts 65°
2026-04-26 00:44 4.82481 -52.35073 215 ft 176 kts 66°
2026-04-26 00:44 4.82974 -52.33974 875 ft 171 kts 68°
2026-04-26 00:44 4.83328 -52.32839 1454 ft 178 kts 76°
2026-04-26 00:44 4.83653 -52.31550 1655 ft 203 kts 78°
2026-04-26 00:45 4.83679 -52.31442 1669 ft 205 kts 78°
2026-04-26 00:46 4.84008 -52.30061 2016 ft 224 kts 77°
2026-04-26 00:46 4.84389 -52.28475 2435 ft 241 kts 77°
2026-04-26 00:46 4.84793 -52.26825 2986 ft 246 kts 77°
2026-04-26 00:47 4.85204 -52.25138 3689 ft 251 kts 80°
2026-04-26 00:47 4.85275 -52.23385 4436 ft 254 kts 92°
2026-04-26 00:47 4.85203 -52.21599 5175 ft 258 kts 92°
2026-04-26 00:47 4.85126 -52.19788 5916 ft 262 kts 92°
2026-04-26 00:48 4.85043 -52.17948 6631 ft 266 kts 92°
2026-04-26 00:48 4.84958 -52.16087 7341 ft 269 kts 92°
2026-04-26 00:48 4.84871 -52.14202 8047 ft 272 kts 92°
2026-04-26 00:48 4.84783 -52.12297 8744 ft 275 kts 92°
2026-04-26 00:49 4.84701 -52.10425 9433 ft 278 kts 92°
2026-04-26 00:49 4.84619 -52.08505 10092 ft 281 kts 92°
2026-04-26 00:49 4.84531 -52.06471 10283 ft 303 kts 92°
2026-04-26 00:49 4.84434 -52.04281 10420 ft 325 kts 92°
2026-04-26 00:50 4.84329 -52.01951 10553 ft 344 kts 92°
2026-04-26 00:50 4.84219 -51.99519 10950 ft 353 kts 92°
2026-04-26 00:50 4.84105 -51.97046 11487 ft 357 kts 92°
2026-04-26 00:50 4.83991 -51.94546 12046 ft 360 kts 92°
2026-04-26 00:51 4.83879 -51.92022 12594 ft 364 kts 92°
2026-04-26 00:51 4.83770 -51.89479 13156 ft 367 kts 92°
2026-04-26 00:51 4.83659 -51.86916 13702 ft 370 kts 92°
2026-04-26 00:51 4.83546 -51.84328 14172 ft 373 kts 92°
2026-04-26 00:52 4.83432 -51.81754 14651 ft 376 kts 92°
2026-04-26 00:52 4.83314 -51.79124 15128 ft 378 kts 92°
2026-04-26 00:52 4.83195 -51.76482 15593 ft 381 kts 92°
2026-04-26 00:52 4.83076 -51.73817 16058 ft 384 kts 92°
2026-04-26 00:53 4.82957 -51.71121 16526 ft 386 kts 92°
2026-04-26 00:53 4.82835 -51.68449 16975 ft 389 kts 92°
2026-04-26 00:53 4.82711 -51.65726 17432 ft 392 kts 92°
2026-04-26 00:53 4.82587 -51.62986 17887 ft 395 kts 92°
2026-04-26 00:54 4.82463 -51.60226 18324 ft 398 kts 92°
2026-04-26 00:54 4.82340 -51.57444 18712 ft 400 kts 92°
2026-04-26 00:54 4.82214 -51.54648 19100 ft 403 kts 92°
2026-04-26 00:54 4.82087 -51.51834 19486 ft 405 kts 92°
2026-04-26 00:55 4.81960 -51.49004 19868 ft 407 kts 92°
2026-04-26 00:55 4.81834 -51.46164 20236 ft 409 kts 92°
2026-04-26 00:55 4.81706 -51.43304 20599 ft 411 kts 92°
2026-04-26 00:55 4.81575 -51.40433 20954 ft 413 kts 92°
2026-04-26 00:56 4.81442 -51.37543 21300 ft 416 kts 92°
2026-04-26 00:56 4.81310 -51.34641 21642 ft 418 kts 92°
2026-04-26 00:56 4.81178 -51.31724 21975 ft 420 kts 92°
2026-04-26 00:56 4.81047 -51.28822 22304 ft 422 kts 92°
2026-04-26 00:57 4.80914 -51.25878 22625 ft 424 kts 92°
2026-04-26 00:57 4.80779 -51.22921 22941 ft 426 kts 92°
2026-04-26 00:57 4.80642 -51.19949 23247 ft 428 kts 92°
2026-04-26 00:57 4.80506 -51.16964 23533 ft 430 kts 92°
2026-04-26 00:58 4.80369 -51.13958 23777 ft 431 kts 92°
2026-04-26 00:58 4.80230 -51.10946 24024 ft 433 kts 92°
2026-04-26 00:58 4.80090 -51.07932 24272 ft 434 kts 92°
2026-04-26 00:58 4.79952 -51.04904 24517 ft 435 kts 92°
2026-04-26 00:59 4.79814 -51.01869 24754 ft 436 kts 92°
2026-04-26 00:59 4.79671 -50.98826 24992 ft 438 kts 92°
2026-04-26 00:59 4.79531 -50.95812 25218 ft 439 kts 92°
2026-04-26 00:59 4.79388 -50.92747 25450 ft 440 kts 92°
2026-04-26 01:00 4.79243 -50.89674 25684 ft 441 kts 92°
2026-04-26 01:00 4.79097 -50.86589 25916 ft 443 kts 92°
2026-04-26 01:00 4.78954 -50.83501 26144 ft 444 kts 92°
2026-04-26 01:00 4.78813 -50.80411 26367 ft 445 kts 92°
2026-04-26 01:01 4.78672 -50.77306 26583 ft 446 kts 92°
2026-04-26 01:01 4.78531 -50.74193 26788 ft 447 kts 92°
2026-04-26 01:01 4.78388 -50.71071 26990 ft 449 kts 92°
2026-04-26 01:01 4.78244 -50.67940 27189 ft 450 kts 92°
2026-04-26 01:02 4.78101 -50.64847 27378 ft 451 kts 92°
2026-04-26 01:02 4.77955 -50.61702 27571 ft 452 kts 92°
2026-04-26 01:02 4.77807 -50.58548 27754 ft 453 kts 92°
2026-04-26 01:02 4.77660 -50.55388 27934 ft 454 kts 92°
2026-04-26 01:03 4.77514 -50.52215 28118 ft 455 kts 92°
2026-04-26 01:03 4.77367 -50.49042 28292 ft 456 kts 92°
2026-04-26 01:03 4.77218 -50.45870 28529 ft 455 kts 93°
2026-04-26 01:03 4.77069 -50.42705 28772 ft 454 kts 93°
2026-04-26 01:04 4.76921 -50.39544 29020 ft 453 kts 93°
2026-04-26 01:04 4.76771 -50.36385 29267 ft 453 kts 93°
2026-04-26 01:04 4.76623 -50.33236 29514 ft 452 kts 93°
2026-04-26 01:04 4.76478 -50.30082 29764 ft 451 kts 93°
2026-04-26 01:05 4.76334 -50.26938 30014 ft 451 kts 93°
2026-04-26 01:05 4.76190 -50.23804 30226 ft 450 kts 93°
2026-04-26 01:05 4.76045 -50.20705 30427 ft 450 kts 93°
2026-04-26 01:05 4.75896 -50.17572 30627 ft 450 kts 93°
2026-04-26 01:06 4.75747 -50.14434 30822 ft 450 kts 93°
2026-04-26 01:06 4.75601 -50.11301 31012 ft 450 kts 93°
2026-04-26 01:06 4.75454 -50.08164 31216 ft 450 kts 93°
2026-04-26 01:06 4.75305 -50.05027 31414 ft 450 kts 93°
2026-04-26 01:07 4.75155 -50.01890 31611 ft 450 kts 93°
2026-04-26 01:07 4.75009 -49.98757 31813 ft 450 kts 93°
2026-04-26 01:07 4.74864 -49.95672 32004 ft 449 kts 93°
2026-04-26 01:07 4.74715 -49.92541 32214 ft 449 kts 93°
2026-04-26 01:08 4.74568 -49.89406 32415 ft 449 kts 93°
2026-04-26 01:08 4.74421 -49.86275 32619 ft 449 kts 93°
2026-04-26 01:08 4.74272 -49.83144 32824 ft 449 kts 93°
2026-04-26 01:08 4.74121 -49.80016 33032 ft 449 kts 93°
2026-04-26 01:09 4.73971 -49.76886 33242 ft 449 kts 93°
2026-04-26 01:09 4.73821 -49.73760 33446 ft 449 kts 93°
2026-04-26 01:09 4.73670 -49.70633 33663 ft 448 kts 93°
2026-04-26 01:09 4.73395 -49.67522 33881 ft 447 kts 100°
2026-04-26 01:10 4.72611 -49.64503 34058 ft 447 kts 110°
2026-04-26 01:10 4.71320 -49.61710 34237 ft 447 kts 120°
2026-04-26 01:10 4.69544 -49.59157 34426 ft 448 kts 129°
2026-04-26 01:10 4.67480 -49.56814 34612 ft 447 kts 130°
2026-04-26 01:11 4.65411 -49.54478 34785 ft 447 kts 130°
2026-04-26 01:11 4.63348 -49.52146 34926 ft 447 kts 130°
2026-04-26 01:11 4.59225 -49.47465 34964 ft 448 kts 130°
2026-04-26 01:12 4.55092 -49.42775 34964 ft 448 kts 130°
2026-04-26 01:12 4.50981 -49.38123 34964 ft 448 kts 130°
2026-04-26 01:13 4.46843 -49.33452 34967 ft 448 kts 130°
2026-04-26 01:13 4.42706 -49.28771 34969 ft 449 kts 130°
2026-04-26 01:14 4.38566 -49.24087 34969 ft 449 kts 130°
2026-04-26 01:14 4.34420 -49.19399 34971 ft 449 kts 130°
2026-04-26 01:15 4.30277 -49.14717 34979 ft 449 kts 130°
2026-04-26 01:15 4.26135 -49.10039 34981 ft 449 kts 130°
2026-04-26 01:16 4.21997 -49.05364 34980 ft 448 kts 130°
2026-04-26 01:16 4.17858 -49.00684 34981 ft 448 kts 130°
2026-04-26 01:17 4.13749 -48.96036 34980 ft 448 kts 130°
2026-04-26 01:17 4.09608 -48.91364 34979 ft 448 kts 130°
2026-04-26 01:18 4.05467 -48.86693 34980 ft 448 kts 130°
2026-04-26 01:18 4.01338 -48.82026 34979 ft 448 kts 130°
2026-04-26 01:19 3.97226 -48.77387 34980 ft 447 kts 130°
2026-04-26 01:19 3.93098 -48.72726 34980 ft 447 kts 130°
2026-04-26 01:20 3.88974 -48.68069 34980 ft 446 kts 130°
2026-04-26 01:20 3.84855 -48.63415 34980 ft 446 kts 130°
2026-04-26 01:21 3.80760 -48.58793 34983 ft 446 kts 130°
2026-04-26 01:21 3.76642 -48.54159 34981 ft 445 kts 130°
2026-04-26 01:22 3.72532 -48.49526 34980 ft 445 kts 130°
2026-04-26 01:22 3.69091 -48.45640 34979 ft 445 kts 130°
2026-04-26 01:23 3.65008 -48.41036 34978 ft 444 kts 130°
2026-04-26 01:23 3.60908 -48.36408 34977 ft 444 kts 130°
2026-04-26 01:24 3.56804 -48.31777 34977 ft 444 kts 130°
2026-04-26 01:24 3.52695 -48.27151 34977 ft 444 kts 130°
2026-04-26 01:25 3.48615 -48.22554 34980 ft 444 kts 130°
2026-04-26 01:25 3.44504 -48.17931 34982 ft 444 kts 130°
2026-04-26 01:26 3.40406 -48.13309 34980 ft 444 kts 130°
2026-04-26 01:26 3.36304 -48.08692 34980 ft 444 kts 130°
2026-04-26 01:27 3.32202 -48.04071 34981 ft 443 kts 130°
2026-04-26 01:27 3.28105 -47.99451 34982 ft 443 kts 130°
2026-04-26 01:28 3.24032 -47.94867 34985 ft 443 kts 130°
2026-04-26 01:28 3.19933 -47.90256 34985 ft 443 kts 130°
2026-04-26 01:29 3.15842 -47.85659 34980 ft 442 kts 130°
2026-04-26 01:29 3.11748 -47.81059 34977 ft 442 kts 130°
2026-04-26 01:30 3.07673 -47.76464 34983 ft 441 kts 130°
2026-04-26 01:30 3.03610 -47.71878 34985 ft 440 kts 130°
2026-04-26 01:31 2.99575 -47.67336 34986 ft 439 kts 130°
2026-04-26 01:31 2.95505 -47.62767 34985 ft 440 kts 130°
2026-04-26 01:32 2.91434 -47.58194 34983 ft 440 kts 130°
2026-04-26 01:32 2.87372 -47.53612 34984 ft 439 kts 130°
2026-04-26 01:33 2.83309 -47.49042 34986 ft 439 kts 130°
2026-04-26 01:33 2.79250 -47.44478 34980 ft 439 kts 130°
2026-04-26 01:34 2.75191 -47.39906 34978 ft 439 kts 130°
2026-04-26 01:34 2.71123 -47.35339 34976 ft 439 kts 131°
2026-04-26 01:35 2.67079 -47.30809 34972 ft 439 kts 130°
2026-04-26 01:35 2.63018 -47.26244 34970 ft 439 kts 130°
2026-04-26 01:36 2.58956 -47.21684 34970 ft 439 kts 130°
2026-04-26 01:37 2.52862 -47.14836 34970 ft 439 kts 130°
2026-04-26 01:37 2.48829 -47.10291 34969 ft 439 kts 130°
2026-04-26 01:38 2.44780 -47.05722 34970 ft 439 kts 130°
2026-04-26 01:38 2.40715 -47.01162 34964 ft 439 kts 131°
2026-04-26 01:39 2.36643 -46.96608 34964 ft 439 kts 131°
2026-04-26 01:39 2.32604 -46.92078 34963 ft 439 kts 131°
2026-04-26 01:40 2.28547 -46.87512 34973 ft 439 kts 131°
2026-04-26 01:40 2.24481 -46.82942 34969 ft 440 kts 131°
2026-04-26 01:41 2.20413 -46.78373 34969 ft 440 kts 131°
2026-04-26 01:41 2.16340 -46.73801 34970 ft 440 kts 131°
2026-04-26 01:42 2.12285 -46.69243 34973 ft 441 kts 131°
2026-04-26 01:42 2.08202 -46.64658 34976 ft 441 kts 131°
2026-04-26 01:43 2.04105 -46.60070 34981 ft 441 kts 131°
2026-04-26 01:43 2.00041 -46.55514 34981 ft 441 kts 131°
2026-04-26 01:44 1.95973 -46.50926 34986 ft 441 kts 130°
2026-04-26 01:44 1.91907 -46.46331 34984 ft 441 kts 130°
2026-04-26 01:45 1.87842 -46.41747 34986 ft 440 kts 130°
2026-04-26 01:45 1.83772 -46.37175 34986 ft 440 kts 130°
2026-04-26 01:46 1.79703 -46.32603 34988 ft 440 kts 130°
2026-04-26 01:46 1.75637 -46.28030 34989 ft 440 kts 130°
2026-04-26 01:47 1.71572 -46.23453 34991 ft 440 kts 130°
2026-04-26 01:47 1.67524 -46.18901 34991 ft 440 kts 130°
2026-04-26 01:48 1.63452 -46.14322 34990 ft 440 kts 130°
2026-04-26 01:48 1.59388 -46.09747 34990 ft 440 kts 130°
2026-04-26 01:49 1.55351 -46.05197 34985 ft 440 kts 130°
2026-04-26 01:49 1.51280 -46.00615 34986 ft 440 kts 130°
2026-04-26 01:50 1.47199 -45.96033 34990 ft 441 kts 130°
2026-04-26 01:50 1.43133 -45.91449 34993 ft 440 kts 130°
2026-04-26 01:51 1.39062 -45.86870 34997 ft 440 kts 131°
2026-04-26 01:51 1.34977 -45.82290 34991 ft 441 kts 131°
2026-04-26 01:52 1.30919 -45.77729 34985 ft 442 kts 131°
2026-04-26 01:52 1.26834 -45.73135 34986 ft 442 kts 131°
2026-04-26 01:53 1.22750 -45.68536 34988 ft 442 kts 131°
2026-04-26 01:53 1.18654 -45.63930 34990 ft 443 kts 131°
2026-04-26 01:54 1.14555 -45.59328 34994 ft 443 kts 131°
2026-04-26 01:54 1.10456 -45.54725 34994 ft 443 kts 131°
2026-04-26 01:55 1.06360 -45.50118 34991 ft 443 kts 131°
2026-04-26 01:55 1.02255 -45.45502 34989 ft 444 kts 131°
2026-04-26 01:56 0.98172 -45.40909 34989 ft 445 kts 131°
2026-04-26 01:56 0.94060 -45.36286 34986 ft 444 kts 131°
2026-04-26 01:57 0.89954 -45.31668 34986 ft 444 kts 131°
2026-04-26 01:57 0.85851 -45.27056 34987 ft 444 kts 131°
2026-04-26 01:58 0.81748 -45.22443 34989 ft 444 kts 131°
2026-04-26 01:58 0.77632 -45.17823 34983 ft 445 kts 131°
2026-04-26 01:59 0.73535 -45.13222 34981 ft 445 kts 131°
2026-04-26 01:59 0.69409 -45.08592 34982 ft 446 kts 131°
2026-04-26 02:00 0.65291 -45.03952 34985 ft 446 kts 130°
2026-04-26 02:00 0.61170 -44.99315 34989 ft 446 kts 131°
2026-04-26 02:01 0.57050 -44.94684 34988 ft 446 kts 131°
2026-04-26 02:01 0.52956 -44.90084 34979 ft 446 kts 131°
2026-04-26 02:02 0.48819 -44.85447 34976 ft 447 kts 131°
2026-04-26 02:02 0.44681 -44.80795 34972 ft 448 kts 131°
2026-04-26 02:03 0.40564 -44.76159 34973 ft 448 kts 131°
2026-04-26 02:03 0.36412 -44.71499 34974 ft 449 kts 131°
2026-04-26 02:04 0.32254 -44.66836 34982 ft 449 kts 131°
2026-04-26 02:04 0.28098 -44.62165 34982 ft 449 kts 131°
2026-04-26 02:05 0.23952 -44.57494 34980 ft 449 kts 130°
2026-04-26 02:05 0.19792 -44.52819 34985 ft 450 kts 131°
2026-04-26 02:06 0.15658 -44.48179 34983 ft 450 kts 131°
2026-04-26 02:06 0.11499 -44.43510 34982 ft 450 kts 131°
2026-04-26 02:07 0.07339 -44.38841 34983 ft 449 kts 130°
2026-04-26 02:07 0.03179 -44.34168 34984 ft 449 kts 130°
2026-04-26 02:08 -0.00969 -44.29499 34989 ft 449 kts 130°
2026-04-26 02:08 -0.05118 -44.24828 34982 ft 450 kts 130°
2026-04-26 02:09 -0.09279 -44.20152 34982 ft 450 kts 130°
2026-04-26 02:09 -0.13442 -44.15474 34979 ft 451 kts 130°
2026-04-26 02:10 -0.17614 -44.10790 34985 ft 451 kts 130°
2026-04-26 02:10 -0.21763 -44.06139 34982 ft 451 kts 131°
2026-04-26 02:11 -0.25936 -44.01454 34992 ft 451 kts 130°
2026-04-26 02:11 -0.30109 -43.96762 34988 ft 451 kts 130°
2026-04-26 02:12 -0.33579 -43.92858 34996 ft 452 kts 130°
2026-04-26 02:12 -0.37756 -43.88158 34996 ft 452 kts 130°
2026-04-26 02:13 -0.41937 -43.83471 34993 ft 452 kts 131°
2026-04-26 02:13 -0.46123 -43.78778 34997 ft 452 kts 130°
2026-04-26 02:14 -0.50301 -43.74075 34998 ft 452 kts 130°
2026-04-26 02:14 -0.54480 -43.69373 34998 ft 452 kts 130°
2026-04-26 02:15 -0.58638 -43.64702 34997 ft 452 kts 131°
2026-04-26 02:15 -0.62815 -43.60004 34999 ft 452 kts 131°
2026-04-26 02:16 -0.66997 -43.55310 34995 ft 452 kts 131°
2026-04-26 02:16 -0.71181 -43.50609 34993 ft 452 kts 131°
2026-04-26 02:17 -0.75362 -43.45912 34992 ft 452 kts 131°
2026-04-26 02:17 -0.79542 -43.41219 34991 ft 452 kts 131°
2026-04-26 02:18 -0.83711 -43.36519 34994 ft 451 kts 130°
2026-04-26 02:18 -0.87857 -43.31855 34992 ft 451 kts 130°
2026-04-26 02:19 -0.92027 -43.27171 34993 ft 451 kts 130°
2026-04-26 02:19 -0.96193 -43.22489 34995 ft 451 kts 130°
2026-04-26 02:20 -1.00368 -43.17794 34994 ft 451 kts 130°
2026-04-26 02:20 -1.04507 -43.13146 34992 ft 450 kts 130°
2026-04-26 02:21 -1.08675 -43.08462 34990 ft 451 kts 130°
2026-04-26 02:21 -1.12846 -43.03775 34993 ft 451 kts 130°
2026-04-26 02:22 -1.17010 -42.99088 34995 ft 451 kts 130°
2026-04-26 02:22 -1.21179 -42.94398 34994 ft 451 kts 130°
2026-04-26 02:23 -1.25349 -42.89708 34989 ft 451 kts 130°
2026-04-26 02:23 -1.29518 -42.85027 34989 ft 451 kts 130°
2026-04-26 02:24 -1.33659 -42.80368 34992 ft 451 kts 130°
2026-04-26 02:24 -1.37827 -42.75674 34992 ft 451 kts 130°
2026-04-26 02:25 -1.41982 -42.70981 34987 ft 451 kts 131°
2026-04-26 02:25 -1.46139 -42.66272 34972 ft 452 kts 131°
2026-04-26 02:26 -1.50304 -42.61561 34966 ft 453 kts 131°
2026-04-26 02:26 -1.54456 -42.56861 34969 ft 454 kts 131°
2026-04-26 02:27 -1.58644 -42.52131 34969 ft 454 kts 131°
2026-04-26 02:27 -1.62839 -42.47390 34972 ft 455 kts 131°
2026-04-26 02:28 -1.67035 -42.42645 34980 ft 455 kts 131°
2026-04-26 02:28 -1.71237 -42.37894 34976 ft 456 kts 131°
2026-04-26 02:29 -1.75414 -42.33164 34970 ft 457 kts 131°
2026-04-26 02:29 -1.79627 -42.28389 34966 ft 458 kts 131°
2026-04-26 02:30 -1.83839 -42.23614 34967 ft 458 kts 131°
2026-04-26 02:30 -1.88059 -42.18843 34967 ft 458 kts 131°
2026-04-26 02:31 -1.92294 -42.14064 34972 ft 459 kts 130°
2026-04-26 02:31 -1.96518 -42.09280 34971 ft 459 kts 130°
2026-04-26 02:32 -2.00717 -42.04520 34976 ft 460 kts 130°
2026-04-26 02:32 -2.04961 -41.99715 34979 ft 460 kts 130°
2026-04-26 02:33 -2.09193 -41.94920 34984 ft 459 kts 130°
2026-04-26 02:33 -2.13422 -41.90135 34993 ft 459 kts 130°
2026-04-26 02:34 -2.17653 -41.85353 34993 ft 459 kts 130°
2026-04-26 02:34 -2.21905 -41.80576 34993 ft 459 kts 130°
2026-04-26 02:35 -2.26138 -41.75851 34993 ft 459 kts 130°
2026-04-26 02:35 -2.30396 -41.71092 34989 ft 459 kts 130°
2026-04-26 02:36 -2.34656 -41.66328 34992 ft 459 kts 130°
2026-04-26 02:36 -2.38711 -41.61791 34987 ft 459 kts 130°
2026-04-26 02:37 -2.43092 -41.56886 34984 ft 459 kts 130°
2026-04-26 02:37 -2.47340 -41.52139 34980 ft 460 kts 130°
2026-04-26 02:38 -2.51606 -41.47361 34969 ft 461 kts 130°
2026-04-26 02:38 -2.55859 -41.42598 34973 ft 461 kts 130°
2026-04-26 02:39 -2.60142 -41.37809 34976 ft 462 kts 130°
2026-04-26 02:39 -2.64047 -41.32751 34985 ft 458 kts 114°
2026-04-26 02:40 -2.66574 -41.26914 34992 ft 457 kts 112°
2026-04-26 02:40 -2.69052 -41.21051 34994 ft 457 kts 112°
2026-04-26 02:41 -2.71501 -41.15225 34992 ft 457 kts 112°
2026-04-26 02:41 -2.73949 -41.09353 34993 ft 457 kts 111°
2026-04-26 02:42 -2.76417 -41.03487 34996 ft 457 kts 112°
2026-04-26 02:42 -2.78898 -40.97644 34995 ft 456 kts 112°
2026-04-26 02:43 -2.82597 -40.88912 34994 ft 456 kts 112°
2026-04-26 02:43 -2.85057 -40.83073 34995 ft 455 kts 112°
2026-04-26 02:44 -2.87512 -40.77244 34993 ft 454 kts 112°
2026-04-26 02:44 -2.89970 -40.71415 34997 ft 454 kts 112°
2026-04-26 02:45 -2.92411 -40.65635 34998 ft 453 kts 112°
2026-04-26 02:45 -2.94859 -40.59830 34996 ft 452 kts 112°
2026-04-26 02:46 -2.97298 -40.54032 34991 ft 452 kts 112°
2026-04-26 02:46 -2.99747 -40.48236 34990 ft 452 kts 112°
2026-04-26 02:47 -3.02184 -40.42484 34990 ft 452 kts 112°
2026-04-26 02:47 -3.04626 -40.36686 34987 ft 452 kts 112°
2026-04-26 02:48 -3.07067 -40.30892 34991 ft 452 kts 112°
2026-04-26 02:48 -3.09515 -40.25092 34993 ft 452 kts 112°
2026-04-26 02:49 -3.11957 -40.19291 34953 ft 452 kts 112°
2026-04-26 02:49 -3.13178 -40.16388 34715 ft 451 kts 112°
2026-04-26 02:49 -3.14380 -40.13528 34372 ft 451 kts 112°
2026-04-26 02:50 -3.15603 -40.10613 33379 ft 456 kts 112°
2026-04-26 02:50 -3.16838 -40.07671 32424 ft 459 kts 112°
2026-04-26 02:50 -3.18080 -40.04717 31454 ft 462 kts 112°
2026-04-26 02:50 -3.19336 -40.01742 30435 ft 467 kts 111°
2026-04-26 02:51 -3.20611 -39.98725 29238 ft 474 kts 111°
2026-04-26 02:51 -3.21900 -39.95676 28100 ft 476 kts 112°
2026-04-26 02:51 -3.23193 -39.92613 26954 ft 478 kts 112°
2026-04-26 02:51 -3.24485 -39.89549 26177 ft 474 kts 111°
2026-04-26 02:52 -3.25756 -39.86528 25413 ft 468 kts 111°
2026-04-26 02:52 -3.27013 -39.83538 24642 ft 464 kts 111°
2026-04-26 02:52 -3.28260 -39.80571 23883 ft 461 kts 111°
2026-04-26 02:52 -3.29482 -39.77659 23086 ft 458 kts 112°
2026-04-26 02:53 -3.30720 -39.74696 22366 ft 453 kts 112°
2026-04-26 02:53 -3.31913 -39.71838 21685 ft 448 kts 112°
2026-04-26 02:53 -3.33107 -39.68980 21021 ft 443 kts 112°
2026-04-26 02:53 -3.34296 -39.66146 20387 ft 439 kts 112°
2026-04-26 02:54 -3.35475 -39.63348 19804 ft 433 kts 112°
2026-04-26 02:54 -3.36646 -39.60572 19206 ft 429 kts 112°
2026-04-26 02:54 -3.37799 -39.57835 18631 ft 425 kts 111°
2026-04-26 02:54 -3.38942 -39.55117 18039 ft 422 kts 111°
2026-04-26 02:55 -3.40076 -39.52424 17480 ft 416 kts 111°
2026-04-26 02:55 -3.41193 -39.49771 16950 ft 411 kts 111°
2026-04-26 02:55 -3.42293 -39.47147 16437 ft 407 kts 112°
2026-04-26 02:55 -3.43381 -39.44550 15914 ft 402 kts 112°
2026-04-26 02:56 -3.44458 -39.41978 15384 ft 399 kts 112°
2026-04-26 02:56 -3.45529 -39.39431 14849 ft 396 kts 112°
2026-04-26 02:56 -3.46595 -39.36900 14295 ft 393 kts 112°
2026-04-26 02:56 -3.47654 -39.34383 13729 ft 391 kts 113°
2026-04-26 02:57 -3.48707 -39.31883 13113 ft 388 kts 113°
2026-04-26 02:57 -3.49751 -39.29403 12452 ft 386 kts 113°
2026-04-26 02:57 -3.50791 -39.26929 11749 ft 386 kts 113°
2026-04-26 02:57 -3.51826 -39.24458 11061 ft 385 kts 113°
2026-04-26 02:58 -3.52848 -39.22022 10407 ft 383 kts 113°
2026-04-26 02:58 -3.53862 -39.19604 10119 ft 370 kts 113°
2026-04-26 02:58 -3.54842 -39.17269 9921 ft 356 kts 113°
2026-04-26 02:58 -3.55779 -39.15032 9800 ft 340 kts 113°
2026-04-26 02:59 -3.56676 -39.12891 9673 ft 326 kts 113°
2026-04-26 02:59 -3.57537 -39.10836 9549 ft 313 kts 113°
2026-04-26 02:59 -3.58364 -39.08865 9425 ft 301 kts 113°
2026-04-26 02:59 -3.59166 -39.06960 9295 ft 293 kts 113°
2026-04-26 03:00 -3.59953 -39.05088 9169 ft 291 kts 113°
2026-04-26 03:00 -3.60738 -39.03223 9033 ft 290 kts 113°
2026-04-26 03:00 -3.61519 -39.01367 8712 ft 288 kts 114°
2026-04-26 03:00 -3.62294 -38.99522 8330 ft 286 kts 114°
2026-04-26 03:01 -3.63062 -38.97692 7946 ft 285 kts 114°
2026-04-26 03:01 -3.63818 -38.95887 7565 ft 283 kts 114°
2026-04-26 03:01 -3.64580 -38.94076 7185 ft 281 kts 114°
2026-04-26 03:01 -3.65338 -38.92275 6808 ft 280 kts 114°
2026-04-26 03:02 -3.66091 -38.90487 6427 ft 278 kts 114°
2026-04-26 03:02 -3.66825 -38.88738 6041 ft 266 kts 114°
2026-04-26 03:02 -3.67526 -38.87068 5690 ft 254 kts 114°
2026-04-26 03:02 -3.67979 -38.85987 5457 ft 246 kts 114°
2026-04-26 03:03 -3.68829 -38.83961 5035 ft 232 kts 114°
2026-04-26 03:03 -3.69250 -38.82961 4826 ft 230 kts 115°
2026-04-26 03:03 -3.69934 -38.81517 4511 ft 229 kts 113°
2026-04-26 03:03 -3.70454 -38.80016 4192 ft 228 kts 108°
2026-04-26 03:04 -3.70865 -38.78522 4002 ft 222 kts 106°
2026-04-26 03:04 -3.71257 -38.77051 3826 ft 216 kts 107°
2026-04-26 03:04 -3.71639 -38.75620 3657 ft 209 kts 107°
2026-04-26 03:04 -3.72011 -38.74234 3467 ft 204 kts 107°
2026-04-26 03:05 -3.72371 -38.72890 3352 ft 195 kts 107°
2026-04-26 03:05 -3.72714 -38.71611 3169 ft 187 kts 107°
2026-04-26 03:05 -3.73041 -38.70390 3074 ft 174 kts 107°
2026-04-26 03:05 -3.73351 -38.69232 2922 ft 171 kts 107°
2026-04-26 03:06 -3.73658 -38.68089 2727 ft 169 kts 107°
2026-04-26 03:06 -3.73963 -38.66951 2510 ft 169 kts 107°
2026-04-26 03:06 -3.74268 -38.65814 2295 ft 169 kts 107°
2026-04-26 03:06 -3.74572 -38.64680 2076 ft 169 kts 106°
2026-04-26 03:07 -3.74865 -38.63587 1875 ft 158 kts 106°
2026-04-26 03:07 -3.75143 -38.62550 1677 ft 151 kts 105°
2026-04-26 03:07 -3.75415 -38.61534 1485 ft 153 kts 106°
2026-04-26 03:07 -3.75693 -38.60498 1276 ft 154 kts 106°
2026-04-26 03:08 -3.75964 -38.59461 1093 ft 155 kts 104°
2026-04-26 03:08 -3.76223 -38.58412 899 ft 156 kts 105°
2026-04-26 03:08 -3.76524 -38.57365 719 ft 157 kts 107°
2026-04-26 03:08 -3.76807 -38.56314 514 ft 155 kts 104°
2026-04-26 03:09 -3.77081 -38.55292 300 ft 150 kts 105°
2026-04-26 03:09 -3.77354 -38.54291 98 ft 146 kts 104°
2026-04-26 03:09 -3.77582 -38.53439 83 ft 103 kts 105°
2026-04-26 03:09 -3.77723 -38.52910 83 ft 47 kts 105°
2026-04-26 03:10 -3.77784 -38.52683 86 ft 13 kts 105°
2026-04-26 03:10 -3.77807 -38.52623 87 ft 7 kts 136°
2026-04-26 03:10 -3.77846 -38.52629 85 ft 7 kts 218°
2026-04-26 03:10 -3.77884 -38.52688 83 ft 11 kts 243°
2026-04-26 03:11 -3.77915 -38.52752 84 ft 9 kts 249°
2026-04-26 03:11 -3.77911 -38.52811 83 ft 8 kts 285°
2026-04-26 03:11 -3.77897 -38.52862 87 ft 7 kts 285°
2026-04-26 03:11 -3.77886 -38.52904 82 ft 7 kts 285°
2026-04-26 03:12 -3.77868 -38.52972 86 ft 13 kts 284°
2026-04-26 03:12 -3.77846 -38.53062 83 ft 14 kts 284°
2026-04-26 03:12 -3.77819 -38.53161 82 ft 16 kts 286°
2026-04-26 03:12 -3.77788 -38.53273 82 ft 18 kts 284°
2026-04-26 03:13 -3.77755 -38.53397 82 ft 19 kts 285°
2026-04-26 03:13 -3.77718 -38.53534 82 ft 21 kts 285°
2026-04-26 03:13 -3.77684 -38.53662 83 ft 16 kts 284°
2026-04-26 03:13 -3.77662 -38.53757 82 ft 11 kts 271°
2026-04-26 03:14 -3.77695 -38.53814 83 ft 9 kts 232°
2026-04-26 03:14 -3.77723 -38.53864 82 ft 9 kts 251°
2026-04-26 03:14 -3.77719 -38.53933 82 ft 10 kts 284°
2026-04-26 03:14 -3.77702 -38.53997 83 ft 9 kts 285°
2026-04-26 03:15 -3.77687 -38.54052 82 ft 7 kts 285°
2026-04-26 03:15 -3.77702 -38.54085 86 ft 5 kts 203°
2026-04-26 03:15 -3.77728 -38.54095 84 ft 4 kts 201°
2026-04-26 03:15 -3.77749 -38.54103 82 ft 3 kts 202°
2026-04-26 03:16 -3.77760 -38.54108 86 ft 1 kts 201°
2026-04-26 03:16 -3.77761 -38.54108 86 ft 0 kts 201°